User: anonymous   Login
Location: Caracas
(10.5033°N, 66.8422°W)
Time: 19:57:25
(UTC-04:00)
Language:

Envisat - Orbit

View from above orbital plane
View from above orbital plane
View from above satellite
View from above satellite

Ground track
Ground track

The orbit data is extracted from the following two-line orbital elements,

1 27386U 02009A   18170.62189612 -.00000013 +00000-0 +91207-5 0  9998
2 27386 098.1838 204.5683 0001242 093.6706 068.8687 14.37924194853804
Epoch (UTC): 19 June 2018 14:55:31
Eccentricity: 0.0001242
inclination: 98.1838°
perigee height: 764 km
apogee height: 766 km
right ascension of ascending node: 204.5683°
argument of perigee: 93.6706°
revolutions per day: 14.37924194
mean anomaly at epoch: 68.8687°
orbit number at epoch: 85380

The dashed part of the orbit path shows where the satellite is in the earth's shadow,  

DLR